Texas Shootout - 2ND RACE

Station: HEDLEY - A Race

Distance: 209 Miles    

Release: 13-Jan-2018 08:30

Weather Release: MOSTLY SUNNY    Arrival: CLEAR

Wind at Release: CALM     Wind at Arrival: NNE 10-15

Temp at Release: 21°    Temp at Arrival: 40°

Lofts: 174

Birds: 719

Clocked: 681

HAULER SAID THEY WERE GONE OUT OF SITE GOOD LUCK
Drops Pos Breeder Pigeon Name Color Sex Ent Arrival Speed To Win Eligible
1 Bieche Lofts - CA 7474-AU17-BCHE BCWF H 1 12:39:39.93 1473.331 00:00:00 Yes
2 L & L Loft - AL 17035-AU17-LL BC H 1 12:39:40.61 1473.264 00:00:01 Yes
3 Elton Dinga - TX 12073-AU17-AA Broth Victor x Kruger 528 BB C 1 12:39:41.11 1473.215 00:00:01 Yes
4 Quest Syndicate - TX 16059-AU17-QS BC H 1 12:39:41.13 1473.213 00:00:01 Yes
5 Marengo Creek Farms - AL 2758-AU17-MCF BB H 1 12:39:42.08 1473.120 00:00:02 Yes
6 Elton Dinga - TX 12158-AU17-AA Gust Jansen OLYMPIADE BC H 2 12:39:42.69 1473.060 00:00:03 Yes
7 Medina Loft - TX 0187-AU17-MDNA BB H 1 12:39:43.47 1472.983 00:00:04 Yes
8 Chen Loft - PA 1081-AU17-TFC BBPD H 1 12:39:43.66 1472.965 00:00:04 Yes
9 Crestview Loft - TX 1340-AU17-CVL BBPD C 1 12:39:45.91 1472.743 00:00:06 Yes
10 A D L Loft - IL 0171-AU17-ADL DCWF C 1 12:39:47.05 1472.631 00:00:07 Yes
11 Baptista - IL 3085-AU17-FOYS BB H 1 12:39:47.61 1472.576 00:00:08 Yes
12 Quest Syndicate/Any Given Day Loft - TX 16617-AU17-QS BB C 1 12:39:48.35 1472.504 00:00:08 Yes
13 Richard Callahan - MO 1669-AU17-AA BC H 1 12:39:50.10 1472.332 00:00:10 Yes
14 Elton Dinga - TX 12132-AU17-AA Klaas 730 x 222 WorldAce BB C 3 12:39:53.41 1472.007 00:00:13 Yes
15 O & L De Vries - ON 2441-AU17-OL 1119 x 302 BC C 1 12:39:54.43 1471.907 00:00:14 Yes
16 Wolf Den & Family Loft - IL 0100-AU17-WOLF BB H 1 12:39:54.78 1471.872 00:00:15 Yes
17 Liu Loft - NC 8883-AU17-LIU BC H 1 12:39:55.11 1471.840 00:00:15 Yes
18 Quest Syndicate/Any Given Day Loft - TX 17099-AU17-AGD BB C 2 12:39:55.61 1471.791 00:00:16 Yes
19 Baudy Loft - LA 1312-AU17-CRSO BC H 1 12:39:55.80 1471.772 00:00:16 Yes
20 Smith & Smith 1 - TX 17061-AU17-ACES BWFP H 1 12:39:56.11 1471.742 00:00:16 Yes
21 Buck`S - TX 2046-AU17-KBUC BC H 1 12:39:56.50 1471.703 00:00:17 Yes
22 Elton Dinga - TX 12119-AU17-AA S.Bolt 223 x D.Alfonso 18 BC C 4 12:39:56.89 1471.665 00:00:17 Yes
23 Kibria Rpl - TX 0089-AU17-EISN EVO 002 + 1430 BV H 1 12:39:56.91 1471.663 00:00:17 Yes
24 Buck`S - TX 34104-AU17-AA BC H 2 12:39:57.46 1471.609 00:00:18 Yes
25 Bionic Loft - LA 4796-AU17-TEX BB C 1 12:39:58.43 1471.514 00:00:18 Yes
26 Bynum Family Lofts - TX 0251-AU17-BFL BB H 1 12:39:59.44 1471.415 00:00:20 Yes
27 Bionic Loft - LA 0625-AU17-CAJN BC H 2 12:40:01.44 1471.219 00:00:22 Yes
28 Rodriquez & Aubone - TX 1700-AU17-TEJA BC C 1 12:40:02.63 1471.102 00:00:23 Yes
29 Southern Legacy Loft - TX 2179-AU17-JOJO BC H 1 12:40:04.08 1470.960 00:00:24 Yes
30 Tulsa Racers - OK 0766-AU17-TULS BB H 1 12:40:05.02 1470.868 00:00:25 Yes
31 Casale/Miner - CA 1751-AU17-VG BBWF H 1 12:40:05.03 1470.867 00:00:25 Yes
32 Dave Byer - CA 5716-AU17-ARPU BB H 1 12:40:06.30 1470.742 00:00:26 Yes
33 Little Reata Loft - TX 17341-AU17-JETT BCWF H 1 12:40:07.50 1470.625 00:00:28 Yes
34 Dream Team - VT 0899-AU17-JCZL BB C 1 12:40:11.94 1470.190 00:00:32 Yes
35 Yendez Loft - TX 0096-AU17-YEND BCSP H 1 12:42:27.32 1457.050 00:02:47 Yes
36 Barry Venn - WY 1977-AU17-VENN BB C 1 12:42:28.44 1456.942 00:02:49 Yes
37 Richard Callahan - MO 37933-AU17-AA DC C 2 12:42:28.46 1456.940 00:02:49 Yes
38 O & L De Vries - ON 2429-AU17-OL 241 x 2238 BB C 2 12:42:28.97 1456.891 00:02:49 Yes
39 Team Bailey - TX 0204-AU17-CAMP BB H 1 12:42:29.05 1456.883 00:02:49 Yes
40 Bill Wisdom - TX 0345-AU17-DEN BB H 1 12:42:29.22 1456.867 00:02:49 Yes
41 Abel Loft - CA 7554-AU17-HAN BC H 1 12:42:30.21 1456.772 00:02:50 Yes
42 Hutchins Loft - TX 0076-AU17-HUCH BB H 1 12:42:30.38 1456.756 00:02:50 Yes
43 Wessel Family Lofts - CA 1449-AU17-ARC BB C 1 12:42:31.13 1456.683 00:02:51 Yes
44 Espo Loft - SC 0963-AU17-ESPO BBPD H 1 12:42:31.18 1456.679 00:02:51 Yes
45 Nesneb Racing Loft - AL 17119-AU17-MOB BB H 1 12:42:31.77 1456.622 00:02:52 Yes
46 Duane Gragg - CA 0754-AU17-KEYH BB H 1 12:42:31.96 1456.604 00:02:52 Yes
47 Cajun Express Loft - LA 10961-AU17-AA BB H 1 12:42:31.99 1456.601 00:02:52 Yes
48 Floating Feather Loft - TX 1344-AU17-CVL BBWF H 1 12:42:32.00 1456.600 00:02:52 Yes
49 Vick Corso - LA 1291-AU17-CRSO BC H 1 12:42:32.97 1456.507 00:02:53 Yes
50 Da Dong - WI 0350-AU17-RAC BB H 1 12:42:33.14 1456.490 00:02:53 Yes
51 Flying D Loft - TX 0305-AU17-FLYD BB H 1 12:42:33.24 1456.481 00:02:53 Yes
52 Richard Callahan - MO 1673-AU17-AA BC H 3 12:42:33.55 1456.451 00:02:54 Yes
53 Neighbor Hood Bullies - TX 0702-AU17-HALE BBWF H 1 12:42:33.66 1456.440 00:02:54 Yes
54 Clear Springs Loft - FL 17101-AU17-WARD BB C 1 12:42:34.85 1456.326 00:02:55 Yes
55 Flying D Loft - TX 0302-AU17-FLYD BB H 2 12:42:34.89 1456.322 00:02:55 Yes
56 Elton Dinga - TX 12104-AU17-AA Klaas 405 x 1132 WorldAce BB H 5 12:42:35.07 1456.305 00:02:55 Yes
57 English Syndicate - UK 2926-AU17-TEX BB H 1 12:42:35.96 1456.219 00:02:56 Yes
58 Marengo Creek Farms - AL 2769-AU17-MCF BB H 2 12:42:36.41 1456.176 00:02:56 Yes
59 Bynum Family Lofts - TX 0202-AU17-BFL BBPD H 2 12:42:36.55 1456.163 00:02:57 Yes
60 Chen Loft - PA 0286-AU17-LU BC H 2 12:42:36.68 1456.150 00:02:57 Yes
61 Fleet Washington - DC 1777-AU17-FLTW BB C 1 12:42:37.52 1456.069 00:02:58 Yes
62 Alfonso Garcia - TX 0271-AU17-DAL DC H 1 12:42:37.80 1456.042 00:02:58 Yes
63 Flying D Loft - TX 0198-AU17-FLYD BC H 3 12:42:40.60 1455.774 00:03:01 Yes
64 Crowder Loft - TX 0738-AU17-GCI BB H 1 12:42:41.44 1455.693 00:03:02 Yes
65 Bynum Family Lofts - TX 0210-AU17-BFL BB H 3 12:42:42.03 1455.636 00:03:02 Yes
66 Scorpion Loft - TX 14718-MX17-CNU BB H 1 12:42:42.71 1455.571 00:03:03 Yes
67 Dave Byer - CA 5719-AU17-ARPU BB C 2 12:42:42.99 1455.544 00:03:03 Yes
68 A P C Loft - TX 17311-AU17-APC GRIZ H 1 12:42:43.36 1455.509 00:03:03 Yes
69 Dekeratry Loft - TX 7482-AU17-HOT GRIZ H 1 12:42:43.55 1455.490 00:03:04 Yes
70 Da Dong - WI 0340-AU17-RAC BB C 2 12:42:44.83 1455.367 00:03:05 Yes
71 Flying D Loft - TX 0304-AU17-FLYD BB H 4 12:42:46.44 1455.213 00:03:07 Yes
72 Yendez Loft - TX 0093-AU17-YEND BC H 2 12:42:57.75 1454.129 00:03:18 Yes
73 Medina Loft - TX 0174-AU17-MDNA BC H 2 12:43:00.83 1453.834 00:03:21 Yes
74 Tulsa Racers - OK 0767-AU17-TULS BBWF H 2 12:43:20.60 1451.943 00:03:41 Yes
75 Band Of Brothers - TX 0760-AU17-HOOK BC H 1 12:43:28.53 1451.186 00:03:49 Yes
76 777 Victory Loft - NY 0133-AU17-NYLN CWFP H 1 12:43:45.36 1449.581 00:04:05 Yes
77 Hillbilly Loft - TX 17691-AU17-AA BB C 1 12:44:14.93 1446.772 00:04:35 Yes
78 Los Banditos - CA 2490-AU17-LB BB H 1 12:44:18.13 1446.468 00:04:38 Yes
79 Carroll Hoover - PA 1130-IF17-RLPC SIL C 1 12:44:19.83 1446.307 00:04:40 Yes
80 Marengo Creek Farms - AL 2771-AU17-MCF BB H 3 12:44:20.38 1446.255 00:04:40 Yes
81 French Camp Connection - CA 71988-AU17-MAN BCWF H 1 12:44:31.93 1445.161 00:04:52 Yes
82 Shiloft - PA 0061-IF17-MIN BC H 1 12:44:43.43 1444.074 00:05:03 Yes
83 Alfonso Garcia - TX 0270-AU17-DAL BB H 2 12:44:47.60 1443.680 00:05:08 Yes
84 Robin & Brenda - TX 0336-AU17-WWC Opieus BC C 1 12:44:48.83 1443.564 00:05:09 Yes
85 Holleys Silver Star - TX 0932-AU17-DEN BB H 1 12:44:50.13 1443.441 00:05:10 Yes
86 Mlb Team - TX 2932-AU17-TEX BWFP C 1 12:44:57.21 1442.773 00:05:17 Yes
87 777 Victory Loft - NY 0147-AU17-NYLN BBPD H 2 12:45:49.11 1437.894 00:06:09 Yes
88 Liu Loft - NC 8884-AU17-LIU BC C 2 12:45:52.05 1437.619 00:06:12 Yes
89 Little Reata Loft - TX 17344-AU17-JETT BC H 2 12:45:52.64 1437.564 00:06:13 Yes
90 Ed Minvielle - LA 17228-AU17-A PNCL C 1 12:45:52.78 1437.551 00:06:13 Yes
91 Bionic Loft - LA 0627-AU17-CAJN BB C 3 12:45:53.52 1437.481 00:06:14 Yes
92 Nemelka Racing Pigeon Loft - UT 7128-AU17-NRPL 1096 x 1034 BC H 1 12:45:55.05 1437.338 00:06:15 Yes
93 Southern Legacy Loft - TX 2241-AU17-JOJO BB H 2 12:45:55.13 1437.331 00:06:15 Yes
94 Neighbor Hood Bullies - TX 0766-AU17-WF BB H 2 12:45:55.28 1437.317 00:06:15 Yes
95 Zhenyuan Guo - SC 0689-AU17-GUO BC H 1 12:45:57.21 1437.136 00:06:17 Yes
96 Drama Queen Loft - TX 1277-AU17-GCI BB H 1 12:45:59.32 1436.939 00:06:19 Yes
97 John Coker - TX 34093-AU17-AA BB C 1 12:46:00.53 1436.825 00:06:21 Yes
98 Smith & Smith 1 - TX 17051-AU17-ACES DC H 2 12:46:20.00 1435.007 00:06:40 Yes
99 Band Of Brothers - TX 0523-AU17-WOOD BB C 2 12:46:23.18 1434.710 00:06:43 Yes
100 Da Dong - WI 1073-AU17-KEN BB H 3 12:47:30.68 1428.442 00:07:51 Yes

There are 984 bird records

Note: These Race Results are unofficial and subject to change until verified by the Race Committee and declared final.